Location: Erlenbrunn
(49.1717°N, 7.6142°E)
Time: 09:21:15
(UTC+00:00)

USA 267 - Pass Details

Date: 25 November 2020
Orbit: 1100 x 1107 km, 123.0° (Epoch: 18 January)

Event Time Altitude Azimuth Distance (km) Brightness Sun altitude
Exits shadow 16:37:27 - 99° (E) 3,302 5.2 -9.6°
Reaches altitude 10° 16:38:21 10° 98° (E) 2,959 5.0 -9.7°
Maximum altitude 16:44:45 60° 21° (NNE) 1,250 3.4 -10.7°
Drops below altitude 10° 16:51:10 10° 303° (WNW) 2,970 6.1 -11.7°
Sets 16:53:41 0° 300° (WNW) 3,931 6.8 -12.1°
